Location: Delettes
(50.6178°N, 2.2123°E)
Time: 20:09:08
(UTC+00:00)

Meteor 1-14 Rocket - Pass Details

Date: 27 February 2020
Orbit: 834 x 918 km, 81.3° (Epoch: 30 March)

Event Time Altitude Azimuth Distance (km) Brightness Sun altitude
Rises 18:50:42 0° 180° (S) 3,370 7.3 -13.8°
Reaches altitude 10° 18:53:06 10° 177° (S) 2,441 6.5 -14.2°
Maximum altitude 18:58:33 64° 97° (E) 928 4.1 -15.1°
Drops below altitude 10° 19:04:05 10° 17° (NNE) 2,483 6.5 -16.0°
Sets 19:06:32 0° 15° (NNE) 3,433 7.3 -16.3°
